Location: Tucson
(32.2217°N, 110.9265°W)
Time: 20:10:18
(UTC-07:00)

A-11 Canister half - Pass Details

Date: 25 October 2021
Orbit: 1516 x 1684 km, 47.2° (Epoch: 28 November)

Event Time Altitude Azimuth Distance (km) Brightness Sun altitude
Rises 21:19:57 0° 294° (WNW) 4,900 12.4 -46.9°
Reaches altitude 10° 21:23:37 10° 304° (NW) 3,892 11.6 -47.6°
Enters shadow 21:29:49 30° 339° (NNW) 2,611 10.3 -48.9°
